sat.trackr.live / text

‹ back to catalog

STARLINK-11715 [DTC]

NORAD 64076 · 2025-107N

PAYLOAD ACTIVE UNKNOWN

§ Identity

Operator
Country
US
Launch date
2025-05-21
Launch site
AFETR
Launch vehicle
Mass (kg)
RCS (m²)

Purposes: comms

External: N2YO · Heavens-Above · Gunter

§ Orbital elements

Epoch: 2026-09-20T08:07:29.263296Z

Period
91.67 min
Inclination
43.0007°
Eccentricity
0.0003991
Mean motion
15.70923159 rev/d
Perigee alt
353.6 km
Apogee alt
358.9 km
Semi-major
6,734.4 km
B*
9.2768e-4
RAAN
4.7382°
Arg perigee
288.7093°
Mean anomaly
71.3342°
Rev number
7,791

§ Raw data

STARLINK-11715 [DTC]1 64076U 25107N   26263.33853314  .00120786  00000+0  92768-3 0  99952 64076  43.0007   4.7382 0003991 288.7093  71.3342 15.70923159 77918

JSON: /api/v1/satellites/64076 · /tle

For live sub-satellite position, see the globe view (requires WebGL).

§ Visibility from observer

Set your observer location to see the next 7 days of passes ≥ 10°. The values pass through the URL so the page stays shareable.

No JS? Fill the form by hand. The geolocation button needs JavaScript.